Weather History for Lee's Summit, MO

Change the Weather History Date:

Wednesday, February 27, 2013

  Actual Average (KMKC) Record (KMKC)
Temperature  
Mean Temperature 30 °F -  
Max Temperature 33 °F 44 °F 68 °F (2006)
Min Temperature 28 °F 27 °F 10 °F (2002)
Degree Days  
Heating Degree Days 34    
Moisture  
Dew Point 26 °F    
Average Humidity 83    
Maximum Humidity 93    
Minimum Humidity 69    
Precipitation  
Precipitation 0.03 in - - ()
Sea Level Pressure  
Sea Level Pressure 29.93 in    
Wind  
Wind Speed 13 mph (WNW)    
Max Wind Speed 20 mph    
Max Gust Speed 26 mph    
Visibility 4 miles    
Events Snow    
Averages and records for this station are not official NWS values.
T = Trace of Precipitation, MM = Missing Value Source: NWS Daily Summary

Daily Weather History Graph

Daily Weather History Graph

Search for Another Location

Airport:

Trip Planner

Search our weather history database for the weather conditions in past years. The results will help you decide how hot, cold, wet, or windy it might be!

Date:

Astronomy

Feb. 27, 2013 Rise Set
Actual Time 6:52 AM CST 6:08 PM CST
Civil Twilight 6:25 AM CST 6:35 PM CST
Nautical Twilight 5:54 AM CST 7:06 PM CST
Astronomical Twilight 5:23 AM CST 7:37 PM CST
Moon 8:28 PM CST (2/27) 7:29 AM CST (2/27)
Length of Visible Light 12h 09m
Length of Day
11h 15m
Waning Gibbous, 96% of the Moon is Illuminated
Feb 27
Waning Gibbous
Mar 4
Last Quarter
Mar 11
New
Mar 19
First Quarter
Mar 27
Full

Hourly Weather History & Observations

Time (CST) Temp. Windchill Dew Point Humidity Pressure Visibility Wind Dir Wind Speed Gust Speed Precip Events Conditions
12:05 AM 30.2 °F 20.8 °F 28.4 °F 93% 29.83 in 2.5 mi NW 11.5 mph - 0.00 in Snow Light Snow
12:53 AM 30.9 °F 21.2 °F 28.0 °F 89% 29.86 in 2.0 mi NW 12.7 mph - 0.00 in Snow Light Snow
1:03 AM 30.2 °F 20.2 °F 28.4 °F 93% 29.83 in 1.5 mi NW 12.7 mph - 0.00 in Snow Light Snow
1:53 AM 30.0 °F 21.7 °F 28.0 °F 92% 29.86 in 1.5 mi NW 9.2 mph - 0.00 in Snow Light Snow
2:53 AM 30.0 °F 22.4 °F 28.0 °F 92% 29.85 in 1.0 mi NW 8.1 mph - 0.01 in Snow Light Snow
3:53 AM 30.0 °F 21.7 °F 27.0 °F 88% 29.86 in 1.2 mi WNW 9.2 mph - 0.01 in Snow Light Snow
4:53 AM 30.0 °F 22.4 °F 27.0 °F 88% 29.87 in 1.2 mi West 8.1 mph - 0.01 in Snow Light Snow
5:53 AM 30.0 °F 20.5 °F 28.0 °F 92% 29.89 in 1.8 mi West 11.5 mph - 0.00 in Snow Light Snow
6:01 AM 30.2 °F 21.3 °F 26.6 °F 86% 29.86 in 2.5 mi WNW 10.4 mph - 0.00 in Snow Light Snow
6:44 AM 30.2 °F 21.3 °F 26.6 °F 86% 29.87 in 1.5 mi WNW 10.4 mph - 0.00 in Snow Light Snow
6:53 AM 30.0 °F 20.5 °F 27.0 °F 88% 29.90 in 1.0 mi WNW 11.5 mph - 0.00 in Snow Light Snow
7:06 AM 28.4 °F 17.0 °F 26.6 °F 93% 29.87 in 0.8 mi WNW 15.0 mph - 0.00 in Snow Light Snow
7:18 AM 28.4 °F 18.0 °F 26.6 °F 93% 29.87 in 1.0 mi WNW 12.7 mph - 0.00 in Snow Light Snow
7:43 AM 28.4 °F 17.5 °F 26.6 °F 93% 29.88 in 0.8 mi WNW 13.8 mph 20.7 mph 0.00 in Snow Light Snow
7:53 AM 28.9 °F 17.3 °F 26.1 °F 89% 29.91 in 1.0 mi WNW 16.1 mph 21.9 mph 0.00 in Snow Light Snow
8:09 AM 28.4 °F 18.0 °F 24.8 °F 86% 29.89 in 1.0 mi WNW 12.7 mph - 0.00 in Snow Light Snow
8:53 AM 28.9 °F 18.6 °F 26.1 °F 89% 29.93 in 1.2 mi WNW 12.7 mph 24.2 mph 0.00 in Snow Light Snow
9:32 AM 28.4 °F 17.5 °F 24.8 °F 86% 29.90 in 2.0 mi West 13.8 mph 23.0 mph 0.00 in Snow Light Snow
9:53 AM 30.0 °F 17.5 °F 25.0 °F 82% 29.93 in 3.0 mi WNW 19.6 mph 25.3 mph 0.00 in   Haze
10:37 AM 30.2 °F 18.1 °F 24.8 °F 80% 29.91 in 2.5 mi WNW 18.4 mph 26.5 mph 0.00 in Snow Light Snow
10:53 AM 30.0 °F 18.3 °F 25.0 °F 82% 29.94 in 2.0 mi NW 17.3 mph 25.3 mph 0.00 in Snow Light Snow
11:31 AM 30.2 °F 19.8 °F 24.8 °F 80% 29.92 in 1.8 mi WNW 13.8 mph 24.2 mph 0.00 in Snow Light Snow
11:46 AM 30.2 °F 20.2 °F 24.8 °F 80% 29.92 in 2.5 mi WNW 12.7 mph - 0.00 in Snow Light Snow
11:53 AM 30.0 °F 19.1 °F 25.0 °F 82% 29.96 in 2.5 mi WNW 15.0 mph 20.7 mph 0.00 in Snow Light Snow
12:13 PM 30.2 °F 18.5 °F 24.8 °F 80% 29.92 in 4.0 mi WNW 17.3 mph 23.0 mph 0.00 in Snow Light Snow
12:48 PM 30.2 °F 19.3 °F 26.6 °F 86% 29.92 in 3.0 mi WNW 15.0 mph - 0.00 in Snow Light Snow
12:53 PM 30.9 °F 20.2 °F 25.0 °F 79% 29.95 in 2.5 mi WNW 15.0 mph - 0.00 in Snow Light Snow
1:15 PM 30.2 °F 18.1 °F 26.6 °F 86% 29.92 in 2.0 mi WNW 18.4 mph 23.0 mph 0.00 in Snow Light Snow
1:41 PM 30.2 °F 19.3 °F 26.6 °F 86% 29.93 in 3.0 mi WNW 15.0 mph - 0.00 in Snow Light Snow
1:49 PM 32.0 °F 21.2 °F 26.6 °F 80% 29.93 in 3.0 mi WNW 16.1 mph 23.0 mph 0.00 in   Haze
1:53 PM 30.9 °F 19.8 °F 25.0 °F 79% 29.96 in 3.0 mi WNW 16.1 mph 23.0 mph 0.00 in   Haze
2:53 PM 30.9 °F 19.8 °F 25.0 °F 79% 29.97 in 5.0 mi WNW 16.1 mph 23.0 mph N/A   Haze
3:53 PM 32.0 °F 21.2 °F 24.1 °F 73% 29.98 in 9.0 mi NW 16.1 mph - N/A   Overcast
4:53 PM 33.1 °F 23.4 °F 24.1 °F 70% 29.99 in 10.0 mi NW 13.8 mph - N/A   Overcast
5:00 PM 33.8 °F 23.9 °F 24.8 °F 70% 29.96 in 10.0 mi NW 15.0 mph - N/A   Overcast
5:53 PM 32.0 °F 25.6 °F 24.1 °F 73% 30.01 in 10.0 mi WNW 6.9 mph - N/A   Overcast
6:53 PM 32.0 °F 24.8 °F 23.0 °F 69% 30.01 in 10.0 mi WNW 8.1 mph - N/A   Mostly Cloudy
7:53 PM 30.9 °F 23.5 °F 24.1 °F 76% 30.02 in 10.0 mi West 8.1 mph - N/A   Clear
8:53 PM 32.0 °F 23.6 °F 24.1 °F 73% 30.03 in 10.0 mi WNW 10.4 mph - N/A   Partly Cloudy
9:53 PM 32.0 °F 22.1 °F 24.1 °F 73% 30.04 in 10.0 mi WNW 13.8 mph - N/A   Overcast
10:53 PM 32.0 °F 22.5 °F 23.0 °F 69% 30.05 in 10.0 mi NW 12.7 mph - N/A   Scattered Clouds
11:53 PM 33.1 °F 23.4 °F 25.0 °F 72% 30.06 in 10.0 mi NW 13.8 mph - N/A   Overcast